Time,TemperatureF,DewpointF,PressureIn,WindDirection,WindDirectionDegrees,WindSpeedMPH,WindSpeedGustMPH,Humidity,HourlyPrecipIn,Conditions,Clouds,dailyrainin,SoftwareType,DateUTC
2013-07-10 00:01:00,85.6,56.3,29.65,SE,146,0.0,0.0,37,0.00,,,0.00,Wunderground v.1.15,2013-07-10 06:01:00,
2013-07-10 00:06:00,85.4,56.2,29.65,ESE,119,0.0,0.0,37,0.00,,,0.00,Wunderground v.1.15,2013-07-10 06:06:00,
2013-07-10 00:16:00,85.0,56.5,29.66,SE,142,0.0,0.0,38,0.00,,,0.00,Wunderground v.1.15,2013-07-10 06:16:00,
2013-07-10 00:26:00,84.7,57.0,29.66,SE,134,0.0,0.0,39,0.00,,,0.00,Wunderground v.1.15,2013-07-10 06:26:00,
2013-07-10 00:31:00,84.5,57.5,29.66,ESE,117,0.0,0.0,40,0.00,,,0.00,Wunderground v.1.15,2013-07-10 06:31:00,
2013-07-10 00:36:00,84.2,57.3,29.67,SSE,150,0.0,1.0,40,0.00,,,0.00,Wunderground v.1.15,2013-07-10 06:36:00,
2013-07-10 00:46:00,83.9,57.7,29.67,SE,140,0.0,0.0,41,0.00,,,0.00,Wunderground v.1.15,2013-07-10 06:46:00,
2013-07-10 00:51:00,83.7,57.5,29.67,SE,131,0.0,0.0,41,0.00,,,0.00,Wunderground v.1.15,2013-07-10 06:51:00,
2013-07-10 00:56:00,83.5,58.0,29.67,SE,130,0.0,0.0,42,0.00,,,0.00,Wunderground v.1.15,2013-07-10 06:56:00,
2013-07-10 01:01:00,83.3,57.8,29.68,SE,130,0.0,0.0,42,0.00,,,0.00,Wunderground v.1.15,2013-07-10 07:01:00,
2013-07-10 01:06:00,83.0,57.5,29.67,SE,138,0.0,0.0,42,0.00,,,0.00,Wunderground v.1.15,2013-07-10 07:06:00,
2013-07-10 01:16:00,82.6,57.8,29.67,SE,146,0.0,0.0,43,0.00,,,0.00,Wunderground v.1.15,2013-07-10 07:16:00,
2013-07-10 01:26:00,82.3,58.2,29.68,SE,143,0.0,0.0,44,0.00,,,0.00,Wunderground v.1.15,2013-07-10 07:26:00,
2013-07-10 01:31:00,82.2,58.1,29.68,SE,143,0.0,0.0,44,0.00,,,0.00,Wunderground v.1.15,2013-07-10 07:31:00,
2013-07-10 01:36:00,82.0,57.9,29.68,SE,143,0.0,0.0,44,0.00,,,0.00,Wunderground v.1.15,2013-07-10 07:36:00,
2013-07-10 01:41:00,81.9,57.8,29.68,SE,142,0.0,0.0,44,0.00,,,0.00,Wunderground v.1.15,2013-07-10 07:41:00,
2013-07-10 01:46:00,81.7,58.3,29.68,SE,136,0.0,0.0,45,0.00,,,0.00,Wunderground v.1.15,2013-07-10 07:46:00,
2013-07-10 01:51:00,81.5,58.1,29.69,SE,130,0.0,0.0,45,0.00,,,0.00,Wunderground v.1.15,2013-07-10 07:51:00,
2013-07-10 01:56:00,81.3,57.9,29.69,SE,140,0.0,0.0,45,0.00,,,0.00,Wunderground v.1.15,2013-07-10 07:56:00,
2013-07-10 02:01:00,81.2,58.5,29.68,SE,139,0.0,0.0,46,0.00,,,0.00,Wunderground v.1.15,2013-07-10 08:01:00,
2013-07-10 02:06:00,81.0,58.3,29.67,SE,130,0.0,0.0,46,0.00,,,0.00,Wunderground v.1.15,2013-07-10 08:06:00,
2013-07-10 02:16:00,80.7,58.6,29.68,SE,129,0.0,0.0,47,0.00,,,0.00,Wunderground v.1.15,2013-07-10 08:16:00,
2013-07-10 02:26:00,80.5,58.4,29.68,SE,126,0.0,0.0,47,0.00,,,0.00,Wunderground v.1.15,2013-07-10 08:26:00,
2013-07-10 02:31:00,80.4,58.3,29.69,SE,125,0.0,0.0,47,0.00,,,0.00,Wunderground v.1.15,2013-07-10 08:31:00,
2013-07-10 02:41:00,80.2,58.7,29.68,SE,125,0.0,0.0,48,0.00,,,0.00,Wunderground v.1.15,2013-07-10 08:41:00,
2013-07-10 02:46:00,80.1,58.6,29.68,SSE,155,0.0,0.0,48,0.00,,,0.00,Wunderground v.1.15,2013-07-10 08:46:00,
2013-07-10 02:51:00,80.0,58.5,29.69,SSE,155,0.0,0.0,48,0.00,,,0.00,Wunderground v.1.15,2013-07-10 08:51:00,
2013-07-10 03:01:00,79.9,58.5,29.69,SSE,155,0.0,0.0,48,0.00,,,0.00,Wunderground v.1.15,2013-07-10 09:01:00,
2013-07-10 03:06:00,79.8,58.4,29.70,SSE,155,0.0,0.0,48,0.00,,,0.00,Wunderground v.1.15,2013-07-10 09:06:00,
2013-07-10 03:16:00,79.5,58.1,29.69,SSE,155,0.0,0.0,48,0.00,,,0.00,Wunderground v.1.15,2013-07-10 09:16:00,
2013-07-10 03:21:00,79.4,58.0,29.69,SSE,155,0.0,0.0,48,0.00,,,0.00,Wunderground v.1.15,2013-07-10 09:21:00,
2013-07-10 03:26:00,79.3,57.9,29.69,SSE,155,0.0,0.0,48,0.00,,,0.00,Wunderground v.1.15,2013-07-10 09:26:00,
2013-07-10 03:31:00,79.1,57.7,29.69,SSE,155,0.0,0.0,48,0.00,,,0.00,Wunderground v.1.15,2013-07-10 09:31:00,
2013-07-10 03:36:00,78.8,57.4,29.69,SSE,155,0.0,0.0,48,0.00,,,0.00,Wunderground v.1.15,2013-07-10 09:36:00,
2013-07-10 03:41:00,78.7,57.4,29.68,SSE,155,0.0,0.0,48,0.00,,,0.00,Wunderground v.1.15,2013-07-10 09:41:00,
2013-07-10 03:51:00,78.4,57.7,29.69,SSE,152,0.0,0.0,49,0.00,,,0.00,Wunderground v.1.15,2013-07-10 09:51:00,
2013-07-10 03:56:00,78.2,57.5,29.69,SSE,152,0.0,0.0,49,0.00,,,0.00,Wunderground v.1.15,2013-07-10 09:56:00,
2013-07-10 04:06:00,78.0,57.9,29.69,SSE,151,0.0,0.0,50,0.00,,,0.00,Wunderground v.1.15,2013-07-10 10:06:00,
2013-07-10 04:16:00,77.9,57.8,29.69,SE,140,0.0,0.0,50,0.00,,,0.00,Wunderground v.1.15,2013-07-10 10:16:00,
2013-07-10 04:21:00,77.9,57.8,29.69,SE,140,0.0,0.0,50,0.00,,,0.00,Wunderground v.1.15,2013-07-10 10:21:00,
2013-07-10 04:26:00,77.8,57.7,29.69,SE,142,0.0,0.0,50,0.00,,,0.00,Wunderground v.1.15,2013-07-10 10:26:00,
2013-07-10 04:31:00,77.8,57.7,29.69,SE,130,0.0,0.0,50,0.00,,,0.00,Wunderground v.1.15,2013-07-10 10:31:00,
2013-07-10 04:41:00,77.7,57.6,29.69,SE,134,0.0,0.0,50,0.00,,,0.00,Wunderground v.1.15,2013-07-10 10:41:00,
2013-07-10 04:51:00,77.5,57.9,29.69,SE,128,0.0,0.0,51,0.00,,,0.00,Wunderground v.1.15,2013-07-10 10:51:00,
2013-07-10 04:56:00,77.4,57.9,29.69,SE,128,0.0,0.0,51,0.00,,,0.00,Wunderground v.1.15,2013-07-10 10:56:00,
2013-07-10 05:01:00,77.3,57.8,29.70,SE,128,0.0,0.0,51,0.00,,,0.00,Wunderground v.1.15,2013-07-10 11:01:00,
2013-07-10 05:06:00,77.2,57.7,29.70,SE,128,0.0,0.0,51,0.00,,,0.00,Wunderground v.1.15,2013-07-10 11:06:00,
2013-07-10 05:16:00,76.9,57.4,29.70,SE,129,0.0,0.0,51,0.00,,,0.00,Wunderground v.1.15,2013-07-10 11:16:00,
2013-07-10 05:21:00,76.8,57.8,29.70,SE,132,0.0,0.0,52,0.00,,,0.00,Wunderground v.1.15,2013-07-10 11:21:00,
2013-07-10 05:26:00,76.7,57.7,29.70,SE,133,0.0,0.0,52,0.00,,,0.00,Wunderground v.1.15,2013-07-10 11:26:00,
2013-07-10 05:31:00,76.7,57.7,29.70,SE,133,0.0,0.0,52,0.00,,,0.00,Wunderground v.1.15,2013-07-10 11:31:00,
2013-07-10 05:36:00,76.6,57.7,29.71,SE,133,0.0,0.0,52,0.00,,,0.00,Wunderground v.1.15,2013-07-10 11:36:00,
2013-07-10 05:46:00,76.4,57.5,29.70,SE,134,0.0,0.0,52,0.00,,,0.00,Wunderground v.1.15,2013-07-10 11:46:00,
2013-07-10 05:56:00,76.3,57.9,29.71,SE,133,0.0,0.0,53,0.00,,,0.00,Wunderground v.1.15,2013-07-10 11:56:00,
2013-07-10 06:01:00,76.2,57.8,29.72,SE,133,0.0,0.0,53,0.00,,,0.00,Wunderground v.1.15,2013-07-10 12:01:00,
2013-07-10 06:06:00,76.2,57.8,29.72,SE,133,0.0,0.0,53,0.00,,,0.00,Wunderground v.1.15,2013-07-10 12:06:00,
2013-07-10 06:16:00,76.0,57.6,29.72,SE,133,0.0,0.0,53,0.00,,,0.00,Wunderground v.1.15,2013-07-10 12:16:00,
2013-07-10 06:21:00,75.9,57.5,29.72,SE,133,0.0,0.0,53,0.00,,,0.00,Wunderground v.1.15,2013-07-10 12:21:00,
2013-07-10 06:26:00,75.9,58.1,29.72,SE,133,0.0,0.0,54,0.00,,,0.00,Wunderground v.1.15,2013-07-10 12:26:00,
2013-07-10 06:31:00,75.8,58.0,29.73,SE,133,0.0,0.0,54,0.00,,,0.00,Wunderground v.1.15,2013-07-10 12:31:00,
2013-07-10 06:36:00,75.7,58.4,29.73,SE,133,0.0,0.0,55,0.00,,,0.00,Wunderground v.1.15,2013-07-10 12:36:00,
2013-07-10 06:41:00,75.7,58.4,29.73,SE,133,0.0,0.0,55,0.00,,,0.00,Wunderground v.1.15,2013-07-10 12:41:00,
2013-07-10 06:46:00,75.6,58.3,29.73,SE,133,0.0,0.0,55,0.00,,,0.00,Wunderground v.1.15,2013-07-10 12:46:00,
2013-07-10 06:51:00,75.6,58.3,29.73,SE,133,0.0,0.0,55,0.00,,,0.00,Wunderground v.1.15,2013-07-10 12:51:00,
2013-07-10 06:56:00,75.5,58.7,29.73,SE,133,0.0,0.0,56,0.00,,,0.00,Wunderground v.1.15,2013-07-10 12:56:00,
2013-07-10 07:01:00,75.6,58.8,29.75,SE,133,0.0,0.0,56,0.00,,,0.00,Wunderground v.1.15,2013-07-10 13:01:00,
2013-07-10 07:11:00,75.7,58.4,29.75,SE,133,0.0,0.0,55,0.00,,,0.00,Wunderground v.1.15,2013-07-10 13:11:00,
2013-07-10 07:16:00,75.8,59.0,29.75,SE,133,0.0,0.0,56,0.00,,,0.00,Wunderground v.1.15,2013-07-10 13:16:00,
2013-07-10 07:21:00,75.9,58.6,29.75,ESE,113,0.0,0.0,55,0.00,,,0.00,Wunderground v.1.15,2013-07-10 13:21:00,
2013-07-10 07:26:00,76.0,59.2,29.75,ESE,113,0.0,0.0,56,0.00,,,0.00,Wunderground v.1.15,2013-07-10 13:26:00,
2013-07-10 07:31:00,76.2,59.4,29.75,ESE,113,0.0,0.0,56,0.00,,,0.00,Wunderground v.1.15,2013-07-10 13:31:00,
2013-07-10 07:36:00,76.5,59.6,29.75,ESE,113,0.0,0.0,56,0.00,,,0.00,Wunderground v.1.15,2013-07-10 13:36:00,
2013-07-10 07:41:00,76.8,59.9,29.75,ESE,109,0.0,0.0,56,0.00,,,0.00,Wunderground v.1.15,2013-07-10 13:41:00,
2013-07-10 07:46:00,77.3,59.9,29.76,ESE,110,0.0,0.0,55,0.00,,,0.00,Wunderground v.1.15,2013-07-10 13:46:00,
2013-07-10 07:51:00,77.7,59.7,29.75,ESE,110,0.0,0.0,54,0.00,,,0.00,Wunderground v.1.15,2013-07-10 13:51:00,
2013-07-10 08:01:00,78.7,59.6,29.75,ESE,110,0.0,0.0,52,0.00,,,0.00,Wunderground v.1.15,2013-07-10 14:01:00,
2013-07-10 08:06:00,79.4,59.1,29.76,SE,130,0.0,0.0,50,0.00,,,0.00,Wunderground v.1.15,2013-07-10 14:06:00,
2013-07-10 08:16:00,80.6,60.2,29.75,SE,129,0.0,0.0,50,0.00,,,0.00,Wunderground v.1.15,2013-07-10 14:16:00,
2013-07-10 08:21:00,81.2,60.2,29.75,ESE,118,0.0,0.0,49,0.00,,,0.00,Wunderground v.1.15,2013-07-10 14:21:00,
2013-07-10 08:26:00,81.8,59.6,29.75,ESE,105,0.0,0.0,47,0.00,,,0.00,Wunderground v.1.15,2013-07-10 14:26:00,
2013-07-10 08:36:00,82.7,59.2,29.75,SE,132,0.0,2.0,45,0.00,,,0.00,Wunderground v.1.15,2013-07-10 14:36:00,
2013-07-10 08:41:00,83.0,59.5,29.75,East,86,0.0,3.0,45,0.00,,,0.00,Wunderground v.1.15,2013-07-10 14:41:00,
2013-07-10 08:46:00,83.3,59.7,29.75,South,191,0.0,3.0,45,0.00,,,0.00,Wunderground v.1.15,2013-07-10 14:46:00,
2013-07-10 08:51:00,83.7,59.5,29.75,SSE,148,0.0,0.0,44,0.00,,,0.00,Wunderground v.1.15,2013-07-10 14:51:00,
2013-07-10 08:56:00,84.0,59.7,29.75,ENE,74,0.0,0.0,44,0.00,,,0.00,Wunderground v.1.15,2013-07-10 14:56:00,
2013-07-10 09:06:00,84.8,59.8,29.75,SE,130,0.0,2.0,43,0.00,,,0.00,Wunderground v.1.15,2013-07-10 15:06:00,
2013-07-10 09:16:00,85.2,59.5,29.75,ESE,107,1.0,1.0,42,0.00,,,0.00,Wunderground v.1.15,2013-07-10 15:16:00,
2013-07-10 09:21:00,85.5,60.4,29.75,West,267,1.0,1.0,43,0.00,,,0.00,Wunderground v.1.15,2013-07-10 15:21:00,
2013-07-10 09:26:00,85.8,60.7,29.75,West,274,0.0,1.0,43,0.00,,,0.00,Wunderground v.1.15,2013-07-10 15:26:00,
2013-07-10 09:31:00,86.1,60.3,29.75,WNW,283,0.0,3.0,42,0.00,,,0.00,Wunderground v.1.15,2013-07-10 15:31:00,
2013-07-10 09:36:00,86.5,60.7,29.74,West,278,0.0,3.0,42,0.00,,,0.00,Wunderground v.1.15,2013-07-10 15:36:00,
2013-07-10 09:46:00,87.2,60.6,29.74,SW,225,0.0,0.0,41,0.00,,,0.00,Wunderground v.1.15,2013-07-10 15:46:00,
2013-07-10 09:51:00,87.5,60.9,29.73,South,184,0.0,0.0,41,0.00,,,0.00,Wunderground v.1.15,2013-07-10 15:51:00,
2013-07-10 09:56:00,88.0,60.7,29.74,South,183,0.0,0.0,40,0.00,,,0.00,Wunderground v.1.15,2013-07-10 15:56:00,
2013-07-10 10:01:00,88.6,61.9,29.74,SSW,202,0.0,0.0,41,0.00,,,0.00,Wunderground v.1.15,2013-07-10 16:01:00,
2013-07-10 10:11:00,89.5,62.0,29.74,SW,223,0.0,0.0,40,0.00,,,0.00,Wunderground v.1.15,2013-07-10 16:11:00,
2013-07-10 10:21:00,90.6,62.3,29.73,North,360,0.0,0.0,39,0.00,,,0.00,Wunderground v.1.15,2013-07-10 16:21:00,
2013-07-10 10:26:00,91.1,61.2,29.73,North,5,0.0,0.0,37,0.00,,,0.00,Wunderground v.1.15,2013-07-10 16:26:00,
2013-07-10 10:31:00,91.8,61.8,29.73,North,9,0.0,0.0,37,0.00,,,0.00,Wunderground v.1.15,2013-07-10 16:31:00,
2013-07-10 10:36:00,92.7,62.6,29.72,North,9,0.0,0.0,37,0.00,,,0.00,Wunderground v.1.15,2013-07-10 16:36:00,
2013-07-10 10:41:00,93.6,61.8,29.72,North,9,0.0,0.0,35,0.00,,,0.00,Wunderground v.1.15,2013-07-10 16:41:00,
2013-07-10 10:51:00,94.5,61.8,29.71,NW,311,0.0,0.0,34,0.00,,,0.00,Wunderground v.1.15,2013-07-10 16:51:00,
2013-07-10 10:56:00,94.6,62.7,29.70,WNW,284,0.0,0.0,35,0.00,,,0.00,Wunderground v.1.15,2013-07-10 16:56:00,
2013-07-10 11:01:00,94.6,61.9,29.71,SSE,157,0.0,0.0,34,0.00,,,0.00,Wunderground v.1.15,2013-07-10 17:01:00,
2013-07-10 11:11:00,95.0,61.4,29.71,SE,142,0.0,2.0,33,0.00,,,0.00,Wunderground v.1.15,2013-07-10 17:11:00,
2013-07-10 11:16:00,95.1,61.5,29.71,SE,142,0.0,2.0,33,0.00,,,0.00,Wunderground v.1.15,2013-07-10 17:16:00,
2013-07-10 11:26:00,95.5,61.8,29.70,SW,232,0.0,0.0,33,0.00,,,0.00,Wunderground v.1.15,2013-07-10 17:26:00,
2013-07-10 11:31:00,95.9,63.8,29.69,SW,225,0.0,0.0,35,0.00,,,0.00,Wunderground v.1.15,2013-07-10 17:31:00,
2013-07-10 11:36:00,96.5,62.7,29.70,SSW,200,0.0,1.0,33,0.00,,,0.00,Wunderground v.1.15,2013-07-10 17:36:00,
2013-07-10 11:41:00,96.9,61.3,29.69,SE,133,0.0,2.0,31,0.00,,,0.00,Wunderground v.1.15,2013-07-10 17:41:00,
2013-07-10 11:46:00,97.3,61.6,29.69,SSW,202,0.0,2.0,31,0.00,,,0.00,Wunderground v.1.15,2013-07-10 17:46:00,
2013-07-10 11:51:00,97.8,63.8,29.68,SSW,213,0.0,0.0,33,0.00,,,0.00,Wunderground v.1.15,2013-07-10 17:51:00,
2013-07-10 12:01:00,98.4,62.6,29.69,SSW,196,0.0,1.0,31,0.00,,,0.00,Wunderground v.1.15,2013-07-10 18:01:00,
2013-07-10 12:11:00,98.0,61.3,29.69,SSE,147,1.0,1.0,30,0.00,,,0.00,Wunderground v.1.15,2013-07-10 18:11:00,
2013-07-10 12:16:00,97.7,61.0,29.69,South,184,0.0,1.0,30,0.00,,,0.00,Wunderground v.1.15,2013-07-10 18:16:00,
2013-07-10 12:21:00,98.0,62.2,29.69,West,279,0.0,0.0,31,0.00,,,0.00,Wunderground v.1.15,2013-07-10 18:21:00,
2013-07-10 12:26:00,98.2,61.5,29.69,WSW,257,0.0,0.0,30,0.00,,,0.00,Wunderground v.1.15,2013-07-10 18:26:00,
2013-07-10 12:31:00,98.1,60.4,29.69,SSE,147,0.0,2.0,29,0.00,,,0.00,Wunderground v.1.15,2013-07-10 18:31:00,
2013-07-10 12:36:00,97.9,60.2,29.68,East,83,1.0,2.0,29,0.00,,,0.00,Wunderground v.1.15,2013-07-10 18:36:00,
2013-07-10 12:41:00,98.2,61.5,29.68,NE,36,1.0,1.0,30,0.00,,,0.00,Wunderground v.1.15,2013-07-10 18:41:00,
2013-07-10 12:46:00,98.7,60.9,29.67,ENE,69,0.0,1.0,29,0.00,,,0.00,Wunderground v.1.15,2013-07-10 18:46:00,
2013-07-10 12:51:00,98.6,60.8,29.67,ENE,69,0.0,0.0,29,0.00,,,0.00,Wunderground v.1.15,2013-07-10 18:51:00,
2013-07-10 13:01:00,99.3,62.4,29.67,NNW,327,0.0,0.0,30,0.00,,,0.00,Wunderground v.1.15,2013-07-10 19:01:00,
2013-07-10 13:06:00,99.6,61.7,29.67,WNW,295,0.0,2.0,29,0.00,,,0.00,Wunderground v.1.15,2013-07-10 19:06:00,
2013-07-10 13:16:00,98.9,59.1,29.67,WNW,290,0.0,0.0,27,0.00,,,0.00,Wunderground v.1.15,2013-07-10 19:16:00,
2013-07-10 13:21:00,98.2,60.5,29.67,NW,313,0.0,0.0,29,0.00,,,0.00,Wunderground v.1.15,2013-07-10 19:21:00,
2013-07-10 13:26:00,97.4,58.8,29.68,WNW,296,1.0,1.0,28,0.00,,,0.00,Wunderground v.1.15,2013-07-10 19:26:00,
2013-07-10 13:31:00,96.6,60.1,29.67,NW,317,1.0,1.0,30,0.00,,,0.00,Wunderground v.1.15,2013-07-10 19:31:00,
2013-07-10 13:41:00,96.5,59.0,29.67,NNW,338,0.0,0.0,29,0.00,,,0.00,Wunderground v.1.15,2013-07-10 19:41:00,
2013-07-10 13:46:00,96.4,59.9,29.67,NNW,341,0.0,0.0,30,0.00,,,0.00,Wunderground v.1.15,2013-07-10 19:46:00,
2013-07-10 13:56:00,96.2,59.7,29.67,NNW,343,0.0,0.0,30,0.00,,,0.00,Wunderground v.1.15,2013-07-10 19:56:00,
2013-07-10 14:01:00,96.2,60.7,29.66,WNW,292,0.0,0.0,31,0.00,,,0.00,Wunderground v.1.15,2013-07-10 20:01:00,
2013-07-10 14:06:00,96.5,58.1,29.67,ESE,117,0.0,0.0,28,0.00,,,0.00,Wunderground v.1.15,2013-07-10 20:06:00,
2013-07-10 14:16:00,97.0,58.5,29.66,West,260,0.0,0.0,28,0.00,,,0.00,Wunderground v.1.15,2013-07-10 20:16:00,
2013-07-10 14:21:00,97.0,57.5,29.66,SE,141,0.0,0.0,27,0.00,,,0.00,Wunderground v.1.15,2013-07-10 20:21:00,
2013-07-10 14:26:00,96.6,57.1,29.66,SSE,163,1.0,1.0,27,0.00,,,0.00,Wunderground v.1.15,2013-07-10 20:26:00,
2013-07-10 14:31:00,96.4,58.0,29.66,East,88,0.0,0.0,28,0.00,,,0.00,Wunderground v.1.15,2013-07-10 20:31:00,
2013-07-10 14:36:00,96.5,58.1,29.66,ESE,111,0.0,0.0,28,0.00,,,0.00,Wunderground v.1.15,2013-07-10 20:36:00,
2013-07-10 14:41:00,96.3,57.9,29.66,ESE,105,1.0,1.0,28,0.00,,,0.00,Wunderground v.1.15,2013-07-10 20:41:00,
2013-07-10 14:51:00,96.3,56.9,29.65,SE,139,0.0,0.0,27,0.00,,,0.00,Wunderground v.1.15,2013-07-10 20:51:00,
2013-07-10 14:56:00,96.7,57.2,29.65,SSE,148,0.0,0.0,27,0.00,,,0.00,Wunderground v.1.15,2013-07-10 20:56:00,
2013-07-10 15:06:00,96.7,57.2,29.65,SE,132,0.0,5.0,27,0.00,,,0.00,Wunderground v.1.15,2013-07-10 21:06:00,
2013-07-10 15:16:00,97.5,57.9,29.64,West,272,1.0,3.0,27,0.00,,,0.00,Wunderground v.1.15,2013-07-10 21:16:00,
2013-07-10 15:26:00,98.1,58.4,29.64,ESE,107,0.0,1.0,27,0.00,,,0.00,Wunderground v.1.15,2013-07-10 21:26:00,
2013-07-10 15:31:00,98.3,58.6,29.64,ESE,107,1.0,1.0,27,0.00,,,0.00,Wunderground v.1.15,2013-07-10 21:31:00,
2013-07-10 15:36:00,98.4,57.6,29.63,ESE,123,1.0,1.0,26,0.00,,,0.00,Wunderground v.1.15,2013-07-10 21:36:00,
2013-07-10 15:41:00,98.6,57.8,29.63,SE,142,0.0,0.0,26,0.00,,,0.00,Wunderground v.1.15,2013-07-10 21:41:00,
2013-07-10 15:46:00,98.6,57.8,29.63,North,360,0.0,0.0,26,0.00,,,0.00,Wunderground v.1.15,2013-07-10 21:46:00,
2013-07-10 15:56:00,98.9,58.0,29.62,ESE,110,1.0,1.0,26,0.00,,,0.00,Wunderground v.1.15,2013-07-10 21:56:00,
2013-07-10 16:01:00,99.1,58.2,29.62,SSE,153,1.0,1.0,26,0.00,,,0.00,Wunderground v.1.15,2013-07-10 22:01:00,
2013-07-10 16:11:00,99.2,59.3,29.61,West,270,0.0,0.0,27,0.00,,,0.00,Wunderground v.1.15,2013-07-10 22:11:00,
2013-07-10 16:16:00,99.3,58.4,29.61,SW,217,0.0,0.0,26,0.00,,,0.00,Wunderground v.1.15,2013-07-10 22:16:00,
2013-07-10 16:21:00,99.4,58.5,29.61,ESE,109,0.0,0.0,26,0.00,,,0.00,Wunderground v.1.15,2013-07-10 22:21:00,
2013-07-10 16:26:00,99.4,59.5,29.60,East,80,1.0,1.0,27,0.00,,,0.00,Wunderground v.1.15,2013-07-10 22:26:00,
2013-07-10 16:31:00,99.2,59.3,29.60,SE,128,0.0,0.0,27,0.00,,,0.00,Wunderground v.1.15,2013-07-10 22:31:00,
2013-07-10 16:36:00,99.1,60.3,29.60,West,271,0.0,0.0,28,0.00,,,0.00,Wunderground v.1.15,2013-07-10 22:36:00,
2013-07-10 16:41:00,98.9,59.1,29.60,East,96,1.0,2.0,27,0.00,,,0.00,Wunderground v.1.15,2013-07-10 22:41:00,
2013-07-10 16:46:00,98.7,58.9,29.60,ESE,102,1.0,2.0,27,0.00,,,0.00,Wunderground v.1.15,2013-07-10 22:46:00,
2013-07-10 16:51:00,98.3,57.5,29.60,SE,132,1.0,1.0,26,0.00,,,0.00,Wunderground v.1.15,2013-07-10 22:51:00,
2013-07-10 16:56:00,98.2,58.5,29.60,SE,125,1.0,1.0,27,0.00,,,0.00,Wunderground v.1.15,2013-07-10 22:56:00,
2013-07-10 17:06:00,98.2,58.5,29.59,ESE,119,1.0,1.0,27,0.00,,,0.00,Wunderground v.1.15,2013-07-10 23:06:00,
2013-07-10 17:16:00,98.1,58.4,29.58,SE,134,0.0,1.0,27,0.00,,,0.00,Wunderground v.1.15,2013-07-10 23:16:00,
2013-07-10 17:21:00,98.1,58.4,29.58,ESE,106,1.0,1.0,27,0.00,,,0.00,Wunderground v.1.15,2013-07-10 23:21:00,
2013-07-10 17:26:00,97.9,58.2,29.58,ESE,104,1.0,1.0,27,0.00,,,0.00,Wunderground v.1.15,2013-07-10 23:26:00,
2013-07-10 17:31:00,97.7,58.1,29.58,ESE,123,0.0,0.0,27,0.00,,,0.00,Wunderground v.1.15,2013-07-10 23:31:00,
2013-07-10 17:41:00,97.7,59.1,29.58,East,84,0.0,0.0,28,0.00,,,0.00,Wunderground v.1.15,2013-07-10 23:41:00,
2013-07-10 17:46:00,97.8,59.2,29.58,NNE,15,0.0,0.0,28,0.00,,,0.00,Wunderground v.1.15,2013-07-10 23:46:00,
2013-07-10 17:51:00,97.9,58.2,29.58,ENE,60,0.0,0.0,27,0.00,,,0.00,Wunderground v.1.15,2013-07-10 23:51:00,
2013-07-10 17:56:00,98.0,58.3,29.58,ESE,123,0.0,0.0,27,0.00,,,0.00,Wunderground v.1.15,2013-07-10 23:56:00,
2013-07-10 18:01:00,98.0,58.3,29.58,East,92,0.0,0.0,27,0.00,,,0.00,Wunderground v.1.15,2013-07-11 00:01:00,
2013-07-10 18:06:00,98.0,58.3,29.57,East,90,0.0,0.0,27,0.00,,,0.00,Wunderground v.1.15,2013-07-11 00:06:00,
2013-07-10 18:16:00,98.0,59.3,29.57,WNW,287,0.0,0.0,28,0.00,,,0.00,Wunderground v.1.15,2013-07-11 00:16:00,
2013-07-10 18:26:00,97.6,58.0,29.57,ESE,109,0.0,0.0,27,0.00,,,0.00,Wunderground v.1.15,2013-07-11 00:26:00,
2013-07-10 18:31:00,97.2,57.6,29.58,SE,144,0.0,0.0,27,0.00,,,0.00,Wunderground v.1.15,2013-07-11 00:31:00,
2013-07-10 18:36:00,96.6,58.2,29.58,East,93,0.0,0.0,28,0.00,,,0.00,Wunderground v.1.15,2013-07-11 00:36:00,
2013-07-10 18:41:00,96.1,57.7,29.58,ESE,109,0.0,0.0,28,0.00,,,0.00,Wunderground v.1.15,2013-07-11 00:41:00,
2013-07-10 18:46:00,95.7,58.4,29.58,WNW,299,0.0,0.0,29,0.00,,,0.00,Wunderground v.1.15,2013-07-11 00:46:00,
2013-07-10 18:51:00,95.4,58.1,29.59,East,80,0.0,0.0,29,0.00,,,0.00,Wunderground v.1.15,2013-07-11 00:51:00,
2013-07-10 18:56:00,95.1,57.8,29.59,East,98,0.0,0.0,29,0.00,,,0.00,Wunderground v.1.15,2013-07-11 00:56:00,
2013-07-10 19:01:00,94.9,57.7,29.57,East,92,0.0,0.0,29,0.00,,,0.00,Wunderground v.1.15,2013-07-11 01:01:00,
2013-07-10 19:06:00,94.7,57.5,29.58,ESE,109,0.0,0.0,29,0.00,,,0.00,Wunderground v.1.15,2013-07-11 01:06:00,
2013-07-10 19:16:00,94.0,56.9,29.58,ESE,105,0.0,0.0,29,0.00,,,0.00,Wunderground v.1.15,2013-07-11 01:16:00,
2013-07-10 19:21:00,93.7,56.6,29.59,ENE,76,1.0,1.0,29,0.00,,,0.00,Wunderground v.1.15,2013-07-11 01:21:00,
2013-07-10 19:26:00,93.4,57.3,29.59,ENE,77,0.0,1.0,30,0.00,,,0.00,Wunderground v.1.15,2013-07-11 01:26:00,
2013-07-10 19:36:00,92.9,56.9,29.59,NE,42,0.0,0.0,30,0.00,,,0.00,Wunderground v.1.15,2013-07-11 01:36:00,
2013-07-10 19:41:00,92.7,55.8,29.59,East,98,0.0,0.0,29,0.00,,,0.00,Wunderground v.1.15,2013-07-11 01:41:00,
2013-07-10 19:46:00,92.5,56.6,29.59,East,101,0.0,0.0,30,0.00,,,0.00,Wunderground v.1.15,2013-07-11 01:46:00,
2013-07-10 19:56:00,92.1,56.2,29.60,ESE,121,0.0,0.0,30,0.00,,,0.00,Wunderground v.1.15,2013-07-11 01:56:00,
2013-07-10 20:01:00,91.9,56.0,29.60,SE,132,0.0,0.0,30,0.00,,,0.00,Wunderground v.1.15,2013-07-11 02:01:00,
2013-07-10 20:06:00,91.8,56.0,29.58,ESE,102,0.0,0.0,30,0.00,,,0.00,Wunderground v.1.15,2013-07-11 02:06:00,
2013-07-10 20:16:00,91.4,56.5,29.59,SE,134,0.0,0.0,31,0.00,,,0.00,Wunderground v.1.15,2013-07-11 02:16:00,
2013-07-10 20:21:00,91.2,56.3,29.59,South,169,0.0,0.0,31,0.00,,,0.00,Wunderground v.1.15,2013-07-11 02:21:00,
2013-07-10 20:26:00,91.0,56.2,29.59,SE,146,0.0,0.0,31,0.00,,,0.00,Wunderground v.1.15,2013-07-11 02:26:00,
2013-07-10 20:31:00,90.9,56.1,29.59,SE,144,0.0,0.0,31,0.00,,,0.00,Wunderground v.1.15,2013-07-11 02:31:00,
2013-07-10 20:36:00,90.7,55.9,29.59,SE,137,0.0,0.0,31,0.00,,,0.00,Wunderground v.1.15,2013-07-11 02:36:00,
2013-07-10 20:46:00,90.4,55.6,29.60,ESE,123,0.0,0.0,31,0.00,,,0.00,Wunderground v.1.15,2013-07-11 02:46:00,
2013-07-10 20:51:00,90.2,55.5,29.60,ESE,120,0.0,0.0,31,0.00,,,0.00,Wunderground v.1.15,2013-07-11 02:51:00,
2013-07-10 21:01:00,89.9,55.2,29.59,ESE,120,0.0,0.0,31,0.00,,,0.00,Wunderground v.1.15,2013-07-11 03:01:00,
2013-07-10 21:06:00,89.7,55.0,29.59,ESE,120,0.0,0.0,31,0.00,,,0.00,Wunderground v.1.15,2013-07-11 03:06:00,
2013-07-10 21:16:00,89.5,55.7,29.59,ESE,119,0.0,0.0,32,0.00,,,0.00,Wunderground v.1.15,2013-07-11 03:16:00,
2013-07-10 21:21:00,89.3,55.6,29.60,ESE,120,0.0,0.0,32,0.00,,,0.00,Wunderground v.1.15,2013-07-11 03:21:00,
2013-07-10 21:26:00,89.1,55.4,29.60,ESE,120,0.0,0.0,32,0.00,,,0.00,Wunderground v.1.15,2013-07-11 03:26:00,
2013-07-10 21:36:00,88.8,55.1,29.60,ESE,120,0.0,0.0,32,0.00,,,0.00,Wunderground v.1.15,2013-07-11 03:36:00,
2013-07-10 21:41:00,88.6,55.8,29.61,ESE,120,0.0,0.0,33,0.00,,,0.00,Wunderground v.1.15,2013-07-11 03:41:00,
2013-07-10 21:51:00,88.3,55.6,29.62,ESE,120,0.0,0.0,33,0.00,,,0.00,Wunderground v.1.15,2013-07-11 03:51:00,
2013-07-10 21:56:00,88.0,55.3,29.62,ESE,120,0.0,0.0,33,0.00,,,0.00,Wunderground v.1.15,2013-07-11 03:56:00,
2013-07-10 22:01:00,87.7,55.0,29.62,ESE,120,0.0,0.0,33,0.00,,,0.00,Wunderground v.1.15,2013-07-11 04:01:00,
2013-07-10 22:06:00,87.5,54.9,29.60,ESE,119,0.0,0.0,33,0.00,,,0.00,Wunderground v.1.15,2013-07-11 04:06:00,
2013-07-10 22:11:00,87.2,54.6,29.60,ESE,120,0.0,0.0,33,0.00,,,0.00,Wunderground v.1.15,2013-07-11 04:11:00,
2013-07-10 22:16:00,87.1,54.5,29.61,SE,134,0.0,0.0,33,0.00,,,0.00,Wunderground v.1.15,2013-07-11 04:16:00,
2013-07-10 22:21:00,86.8,54.2,29.61,SE,134,0.0,0.0,33,0.00,,,0.00,Wunderground v.1.15,2013-07-11 04:21:00,
2013-07-10 22:26:00,86.7,54.2,29.61,ESE,117,0.0,0.0,33,0.00,,,0.00,Wunderground v.1.15,2013-07-11 04:26:00,
2013-07-10 22:31:00,86.6,54.1,29.61,ESE,118,0.0,0.0,33,0.00,,,0.00,Wunderground v.1.15,2013-07-11 04:31:00,
2013-07-10 22:36:00,86.5,54.8,29.61,ESE,118,0.0,0.0,34,0.00,,,0.00,Wunderground v.1.15,2013-07-11 04:36:00,
2013-07-10 22:41:00,86.4,54.7,29.62,ESE,121,0.0,0.0,34,0.00,,,0.00,Wunderground v.1.15,2013-07-11 04:41:00,
2013-07-10 22:46:00,86.3,54.6,29.62,ESE,123,0.0,0.0,34,0.00,,,0.00,Wunderground v.1.15,2013-07-11 04:46:00,
2013-07-10 22:51:00,86.3,54.6,29.62,SE,124,0.0,0.0,34,0.00,,,0.00,Wunderground v.1.15,2013-07-11 04:51:00,
2013-07-10 22:56:00,86.2,54.5,29.62,SE,132,0.0,0.0,34,0.00,,,0.00,Wunderground v.1.15,2013-07-11 04:56:00,
2013-07-10 23:01:00,86.1,54.5,29.61,SE,130,0.0,1.0,34,0.00,,,0.00,Wunderground v.1.15,2013-07-11 05:01:00,
2013-07-10 23:06:00,86.0,54.4,29.61,SE,134,0.0,1.0,34,0.00,,,0.00,Wunderground v.1.15,2013-07-11 05:06:00,
2013-07-10 23:16:00,85.9,54.3,29.61,ESE,118,1.0,1.0,34,0.00,,,0.00,Wunderground v.1.15,2013-07-11 05:16:00,
2013-07-10 23:21:00,85.9,54.3,29.61,SE,135,0.0,1.0,34,0.00,,,0.00,Wunderground v.1.15,2013-07-11 05:21:00,
2013-07-10 23:26:00,85.8,54.2,29.60,ESE,118,0.0,1.0,34,0.00,,,0.00,Wunderground v.1.15,2013-07-11 05:26:00,
2013-07-10 23:31:00,85.8,54.2,29.60,SE,136,0.0,0.0,34,0.00,,,0.00,Wunderground v.1.15,2013-07-11 05:31:00,
2013-07-10 23:36:00,85.8,54.2,29.60,SSE,152,0.0,2.0,34,0.00,,,0.00,Wunderground v.1.15,2013-07-11 05:36:00,
2013-07-10 23:41:00,85.8,54.2,29.60,SE,140,0.0,0.0,34,0.00,,,0.00,Wunderground v.1.15,2013-07-11 05:41:00,
2013-07-10 23:51:00,85.8,54.2,29.60,SE,142,0.0,0.0,34,0.00,,,0.00,Wunderground v.1.15,2013-07-11 05:51:00,
2013-07-10 23:56:00,85.8,54.2,29.60,SE,131,0.0,0.0,34,0.00,,,0.00,Wunderground v.1.15,2013-07-11 05:56:00,